Location: Cassagne
(43.1218°N, 0.9901°E)
Time: 08:14:02
(UTC+00:00)

CZ-4B R/B - Pass Details

Date: 17 February 2020
Orbit: 486 x 653 km, 97.9° (Epoch: 30 March)

Event Time Altitude Azimuth Distance (km) Brightness Sun altitude
Rises 05:12:17 0° 6° (N) 2,648 6.4 -18.8°
Reaches altitude 10° 05:14:29 10° 359° (N) 1,734 5.4 -18.4°
Enters shadow 05:17:48 41° 298° (WNW) 732 3.0 -17.8°
